Regional Weather Roundup
Issued by NWS State College, PA

Home | Current Version | Previous Version | Text Only | Print | Product List | Glossary On
Versions: 1 2 3 4 5 6 7 8 9 10 11 12 13 14 15 16 17 18 19 20 21 22 23 24 25 26 27 28 29 30 31 32 33 34 35 36 37 38 39 40 41 42 43 44 45 46 47 48 49 50
000
ASUS41 KCTP 020410
RWRCTP

REGIONAL WEATHER ROUNDUP
NATIONAL WEATHER SERVICE STATE COLLEGE PA
1200 AM EDT MON MAY 02 2016

Note: "fair" indicates few or no clouds below 12,000 feet with no
significant weather and/or obstructions to visibility.

* = STATION THAT DOES NOT REPORT PRECIPITATION /E.G. RAIN...SNOW...ETC/
    THUNDER OR FOG.

PAZ002>004-007>009-013>016-020>023-029>032-020500-
WESTERN PENNSYLVANIA

CITY           SKY/WX    TMP DP  RH WIND       PRES   REMARKS
ERIE           CLOUDY    46  44  93 NE7       29.98F FOG
MEADVILLE        N/A    N/A N/A N/A MISG      29.95F
FRANKLIN*      CLOUDY    50  46  87 N5        29.96F
NEW CASTLE     CLOUDY    55  52  89 N6        29.94F
BEAVER COUNTY  NOT AVBL
BUTLER*        CLOUDY    55  52  88 N7        29.95F
PITTSBURGH INT CLOUDY    59  55  87 N10       29.89F
PITTSBURGH     CLOUDY    58  54  86 CALM      29.90F
INDIANA*       CLEAR     59  59 100 E5        29.96F
LATROBE        CLOUDY    57  57 100 CALM      29.93R FOG
WASHINGTON CO* MOCLDY    55  54  94 CALM      29.91F
$$

PAZ004>006-010>012-017>019-024>028-033>037-041-042-045-046-049>053-020500-
CENTRAL PENNSYLVANIA

CITY           SKY/WX    TMP DP  RH WIND       PRES   REMARKS
BRADFORD       CLOUDY    53  51  93 E5        29.95F FOG
DUBOIS         FOG       55  53  93 E6        29.93F VSB 1/4
CLEARFIELD     FOG       53  51  93 E6        29.96F VSB 1/2
JOHNSTOWN      CLOUDY    56  50  80 S8        29.95F
ALTOONA        CLOUDY    53  52  96 SE6       29.98F
STATE COLLEGE  CLOUDY    50  49  97 CALM      29.99F
WILLIAMSPORT   CLOUDY    50  46  86 E7        30.01F
SELINSGROVE    CLOUDY    50  48  93 CALM      30.03F FOG
FT INDIANTOWN  CLOUDY    49  49 100 E2        30.04S FOG
CAPITAL CITY   CLOUDY    53  50  89 E6        30.04S FOG
HARRISBURG     DRIZZLE   52  50  93 E7        30.04R FOG
YORK           CLOUDY    53  51  93 S3        30.04R
$$

PAZ038>040-043-044-047-048-054-055-060>062-067>071-020500-
EASTERN PENNSYLVANIA

CITY           SKY/WX    TMP DP  RH WIND       PRES   REMARKS
SCRANTON       CLOUDY    48  45  89 E3        30.02F
MOUNT POCONO   FOG       42  41  96 SE8       30.03F VSB 1/4
ALLENTOWN      CLOUDY    49  46  90 E6        30.07R
QUAKERTOWN*    CLOUDY    46  46 100 CALM      30.07F
READING        CLOUDY    50  48  93 E3        30.04F FOG
LANCASTER      CLOUDY    50  50 100 SE6       30.05R FOG
COATESVILLE    FOG       50  50 100 E7        30.07R VSB 1/4
POTTSTOWN      CLOUDY    48  48 100 NE7       30.07F FOG
BLUE BELL      CLOUDY    46  46 100 E3        30.06S
DOYLESTOWN     CLOUDY    45  45 100 CALM      30.06S FOG
WILLOW GROVE   NOT AVBL
NORTH PHILA    CLOUDY    49  47  93 E9        30.08S FOG
PHILADELPHIA   DRIZZLE   51  47  86 E7        30.07S
$$




USA.gov is the U.S. government's official web portal to all federal, state and local government web resources and services.